DW1105 Weather Reports


Display with metric or nautical units.
time (UTC)temp
F
wind
direction
speed
MPH
gust
MPH
rain 1hr
in
rain 24hr
in
rain mn
in
humidity
%
barometer
mb
20260502163313 55 256 3.0 9.0 0.00 0.00 0.00 51 1011.6
20260502162828 54 5 4.0 10.0 0.00 0.00 0.00 53 1011.6
20260502162324 53 346 5.0 10.0 0.00 0.00 0.00 52 1011.6
20260502161820 54 11 3.0 12.0 0.00 0.00 0.00 53 1011.7
20260502161315 54 40 6.0 12.0 0.00 0.00 0.00 53 1011.6
20260502160811 54 56 2.0 10.0 0.00 0.00 0.00 51 1011.7
20260502160328 54 5 4.0 10.0 0.00 0.00 0.00 52 1011.6
20260502152321 52 14 4.0 9.0 0.00 0.00 0.00 59 1012.0
20260502151821 52 57 4.0 13.0 0.00 0.00 0.00 62 1011.8
20260502151316 52 335 5.0 13.0 0.00 0.00 0.00 61 1012.0
20260502150813 52 355 6.0 13.0 0.00 0.00 0.00 62 1012.1
20260502150329 51 342 4.0 8.0 0.00 0.00 0.00 62 1012.1
20260502130328 49 329 3.0 8.0 0.00 0.00 0.00 78 1012.2
20260502123812 49 360 2.0 14.0 0.00 0.00 0.00 79 1012.0
20260502123329 49 348 7.0 14.0 0.00 0.00 0.00 79 1011.9
20260502122825 49 19 4.0 12.0 0.00 0.00 0.00 80 1011.7
20260502122326 49 320 2.0 10.0 0.00 0.00 0.00 81 1011.7
20260502121822 49 322 4.0 10.0 0.00 0.00 0.00 81 1011.7
20260502121317 49 322 2.0 9.0 0.00 0.00 0.00 82 1011.7
20260502120813 49 15 4.0 9.0 0.00 0.00 0.00 82 1011.6
20260502120329 49 311 3.0 10.0 0.00 0.00 0.00 82 1011.6
20260502115825 49 326 3.0 10.0 0.00 0.00 0.00 82 1011.2
20260502115320 49 292 3.0 8.0 0.00 0.00 0.00 82 1011.4
20260502114820 49 332 3.0 8.0 0.00 0.00 0.00 83 1011.4
20260502114315 49 335 3.0 8.0 0.00 0.00 0.00 83 1011.5
20260502113811 49 234 3.0 8.0 0.00 0.00 0.00 84 1011.4
20260502113328 49 335 2.0 4.0 0.00 0.00 0.00 85 1011.4
20260502112824 49 271 1.0 3.0 0.00 0.00 0.00 85 1011.6
20260502112321 49 268 1.0 3.0 0.00 0.00 0.00 86 1011.6
20260502111817 48 300 1.0 3.0 0.00 0.00 0.00 87 1011.6
20260502111316 48 230 0.0 4.0 0.00 0.00 0.00 88 1011.6
20260502110812 48 340 2.0 4.0 0.00 0.00 0.00 88 1011.6
20260502110329 48 325 0.0 2.0 0.00 0.00 0.00 89 1011.5
20260502105825 48 332 1.0 2.0 0.00 0.00 0.00 89 1011.3
20260502105321 47 340 0.0 0.0 0.00 0.00 0.00 90 1011.2
20260502104817 47 340 0.0 0.0 0.00 0.00 0.00 91 1011.2
20260502104312 47 340 0.0 0.0 0.00 0.00 0.00 91 1011.1
20260502103812 47 340 0.0 0.0 0.00 0.00 0.00 91 1011.2
20260502103329 46 340 0.0 0.0 0.00 0.00 0.00 90 1011.0
20260502102825 46 340 0.0 0.0 0.00 0.00 0.00 90 1011.0
20260502102322 46 340 0.0 0.0 0.00 0.00 0.00 90 1011.1
20260502101838 46 340 0.0 0.0 0.00 0.00 0.00 90 1011.0
20260502101314 46 340 0.0 0.0 0.00 0.00 0.00 90 1010.9
20260502100810 46 340 0.0 0.0 0.00 0.00 0.00 89 1010.9
20260502100327 46 340 0.0 0.0 0.00 0.00 0.00 89 1011.0
20260502091315 48 340 0.0 1.0 0.00 0.00 0.00 84 1010.4
20260502090812 48 331 0.0 2.0 0.00 0.00 0.00 85 1010.7
20260502090329 49 347 0.0 4.0 0.00 0.00 0.00 84 1010.7
20260502071313 51 309 3.0 4.0 0.00 0.00 0.00 78 1010.8
20260502070830 51 317 1.0 4.0 0.00 0.00 0.00 78 1010.8
20260502070326 51 10 1.0 3.0 0.00 0.00 0.00 79 1010.9
20260502065822 51 344 1.0 3.0 0.00 0.00 0.00 79 1010.9
20260502065339 51 329 2.0 3.0 0.00 0.00 0.00 78 1011.0
20260502064835 51 333 2.0 3.0 0.00 0.00 0.00 77 1011.0
20260502064350 52 330 3.0 3.0 0.00 0.00 0.00 76 1011.0
20260502063825 52 319 1.0 3.0 0.00 0.00 0.00 74 1011.1
20260502063326 52 328 1.0 3.0 0.00 0.00 0.00 74 1011.0
20260502062821 52 331 0.0 0.0 0.00 0.00 0.00 75 1011.1
20260502062318 52 331 0.0 0.0 0.00 0.00 0.00 75 1011.1
20260502061815 52 331 0.0 0.0 0.00 0.00 0.00 74 1011.2
20260502061310 52 331 0.0 2.0 0.00 0.00 0.00 75 1011.1
20260502060828 52 331 0.0 2.0 0.00 0.00 0.00 77 1011.1
20260502060324 51 331 0.0 0.0 0.00 0.00 0.00 76 1011.3
20260502055839 52 331 0.0 0.0 0.00 0.00 0.00 76 1011.2
20260502055318 52 331 0.0 0.0 0.00 0.00 0.00 76 1011.2
20260502054835 52 331 0.0 0.0 0.00 0.00 0.00 76 1011.2
20260502054328 52 331 0.0 0.0 0.00 0.00 0.00 75 1011.1
20260502053825 52 331 0.0 0.0 0.00 0.00 0.00 74 1011.1
20260502053322 52 331 0.0 0.0 0.00 0.00 0.00 74 1011.1
20260502052817 52 331 0.0 0.0 0.00 0.00 0.00 73 1011.0
20260502052334 52 331 0.0 0.0 0.00 0.00 0.00 73 1011.1
20260502051830 52 331 0.0 0.0 0.00 0.00 0.00 72 1011.1
20260502051310 52 331 0.0 1.0 0.00 0.00 0.00 72 1011.2
20260502050827 53 331 0.0 1.0 0.00 0.00 0.00 71 1011.2
20260502050344 53 331 0.0 0.0 0.00 0.00 0.00 70 1011.3
20260502045818 53 331 0.0 0.0 0.00 0.00 0.00 69 1011.2
20260502045315 53 331 0.0 2.0 0.00 0.00 0.00 69 1011.2
20260502044812 53 331 0.0 2.0 0.00 0.00 0.00 69 1011.1
20260502044327 53 331 0.0 0.0 0.00 0.00 0.00 67 1011.3
20260502043824 53 331 0.0 0.0 0.00 0.00 0.00 68 1011.3
20260502043324 53 331 0.0 0.0 0.00 0.00 0.00 68 1011.2
20260502042821 53 331 0.0 0.0 0.00 0.00 0.00 69 1011.2
20260502042316 53 331 0.0 0.0 0.00 0.00 0.00 69 1011.2
20260502041813 53 331 0.0 0.0 0.00 0.00 0.00 69 1011.1
20260502041328 53 331 0.0 0.0 0.00 0.00 0.00 68 1011.2
20260502040824 54 331 0.0 0.0 0.00 0.00 0.00 68 1011.1
20260502040321 54 331 0.0 0.0 0.00 0.00 0.00 67 1011.1
20260502035820 54 331 0.0 0.0 0.00 0.00 0.00 66 1011.1
20260502035316 54 331 0.0 0.0 0.00 0.00 0.00 64 1011.0
20260502034813 54 331 0.0 0.0 0.00 0.00 0.00 64 1010.9
20260502034329 54 331 0.0 0.0 0.00 0.00 0.00 63 1010.9
20260502033845 54 331 0.0 0.0 0.00 0.00 0.00 64 1010.8
20260502033321 54 331 0.0 0.0 0.00 0.00 0.00 64 1010.9
20260502032817 55 331 0.0 0.0 0.00 0.00 0.00 63 1010.9
20260502032317 55 331 0.0 0.0 0.00 0.00 0.00 63 1010.9
20260502031813 55 331 0.0 0.0 0.00 0.00 0.00 61 1011.0
20260502031328 55 331 0.0 0.0 0.00 0.00 0.00 60 1011.0
20260502030844 55 331 0.0 0.0 0.00 0.00 0.00 59 1011.1
20260502030320 55 331 0.0 0.0 0.00 0.00 0.00 59 1011.0
20260502025816 55 331 0.0 0.0 0.00 0.00 0.00 60 1011.1
20260502025312 54 331 0.0 0.0 0.00 0.00 0.00 62 1011.2
20260502024829 55 331 0.0 1.0 0.00 0.00 0.00 63 1011.2
20260502024329 55 331 0.0 1.0 0.00 0.00 0.00 62 1011.2
20260502023825 55 331 0.0 0.0 0.00 0.00 0.00 60 1011.3
20260502023322 55 331 0.0 0.0 0.00 0.00 0.00 60 1011.3
20260502022817 55 331 0.0 0.0 0.00 0.00 0.00 60 1011.4
20260502022314 56 331 0.0 1.0 0.00 0.00 0.00 58 1011.4
20260502021810 56 331 0.0 1.0 0.00 0.00 0.00 56 1011.3
20260502021325 56 345 0.0 2.0 0.00 0.00 0.00 57 1011.0
20260502020826 56 345 0.0 3.0 0.00 0.00 0.00 56 1011.2
20260502020322 56 355 1.0 3.0 0.00 0.00 0.00 57 1011.2
20260502015818 56 319 2.0 6.0 0.00 0.00 0.00 55 1011.2
20260502015316 57 314 1.0 6.0 0.00 0.00 0.00 55 1011.2
20260502014810 57 307 3.0 4.0 0.00 0.00 0.00 56 1011.1
20260502014327 57 329 1.0 3.0 0.00 0.00 0.00 57 1011.1
20260502013842 56 340 1.0 3.0 0.00 0.00 0.00 59 1011.1
20260502013318 56 281 0.0 0.0 0.00 0.00 0.00 60 1010.9
20260502012839 56 281 0.0 0.0 0.00 0.00 0.00 57 1010.9
20260502012314 56 281 0.0 0.0 0.00 0.00 0.00 58 1010.8
20260502011810 56 281 0.0 0.0 0.00 0.00 0.00 59 1010.8
20260502011327 56 281 0.0 0.0 0.00 0.00 0.00 58 1010.7
20260502010820 56 281 0.0 0.0 0.00 0.00 0.00 58 1010.8
20260502010316 56 281 0.0 0.0 0.00 0.00 0.00 57 1010.6
20260502005812 56 281 0.0 0.0 0.00 0.00 0.00 58 1010.6
20260502005313 56 281 0.0 0.0 0.00 0.00 0.00 57 1010.5
20260502004849 57 281 0.0 0.0 0.00 0.00 0.00 56 1010.5
20260502004344 57 281 0.0 0.0 0.00 0.00 0.00 56 1010.5
20260502003839 57 281 0.0 0.0 0.00 0.00 0.00 54 1010.4
20260502003314 57 281 0.0 0.0 0.00 0.00 0.00 54 1010.4
20260502002850 57 281 0.0 0.0 0.00 0.00 0.00 54 1010.3
20260502002325 58 281 0.0 0.0 0.00 0.00 0.00 53 1010.2
20260502001822 58 281 0.0 0.0 0.00 0.00 0.00 53 1010.2
20260502001339 58 281 0.0 0.0 0.00 0.00 0.00 53 1010.2
20260502000814 58 281 0.0 0.0 0.00 0.00 0.00 52 1010.2
20260502000317 58 281 0.0 0.0 0.00 0.00 0.00 52 1010.2
20260501235811 59 281 0.0 0.0 0.00 0.00 0.00 51 1010.1
20260501235348 59 281 0.0 0.0 0.00 0.00 0.00 51 1010.1
20260501234823 59 281 0.0 1.0 0.00 0.00 0.00 49 1010.0
20260501234320 60 281 0.0 1.0 0.00 0.00 0.00 49 1009.9
20260501233816 60 281 0.0 1.0 0.00 0.00 0.00 48 1009.9
20260501233313 60 281 0.0 1.0 0.00 0.00 0.00 48 1009.9
20260501232828 60 305 0.0 1.0 0.00 0.00 0.00 47 1010.0
20260501232329 60 188 0.0 1.0 0.00 0.00 0.00 47 1009.9
20260501231845 60 188 0.0 1.0 0.00 0.00 0.00 46 1009.8
20260501231319 60 185 0.0 2.0 0.00 0.00 0.00 46 1009.8
20260501230815 60 188 0.0 3.0 0.00 0.00 0.00 45 1009.8
20260501230312 61 177 0.0 3.0 0.00 0.00 0.00 45 1009.8
20260501225828 61 344 0.0 3.0 0.00 0.00 0.00 44 1009.8
20260501225323 61 236 0.0 4.0 0.00 0.00 0.00 45 1009.8
20260501224819 61 252 1.0 4.0 0.00 0.00 0.00 43 1009.6
20260501224320 61 337 0.0 0.0 0.00 0.00 0.00 44 1009.6
20260501223816 62 22 0.0 7.0 0.00 0.00 0.00 42 1009.5
20260501223333 62 290 3.0 7.0 0.00 0.00 0.00 42 1009.5
20260501222827 62 130 1.0 9.0 0.00 0.00 0.00 43 1009.5
20260501222323 62 314 1.0 9.0 0.00 0.00 0.00 43 1009.5
20260501221820 62 347 1.0 8.0 0.00 0.00 0.00 43 1009.5
20260501221337 62 326 1.0 8.0 0.00 0.00 0.00 41 1009.6
20260501220812 63 304 2.0 5.0 0.00 0.00 0.00 40 1009.6
20260501220313 62 360 1.0 5.0 0.00 0.00 0.00 40 1009.7
20260501215829 62 344 0.0 4.0 0.00 0.00 0.00 42 1009.7
20260501215325 63 259 2.0 4.0 0.00 0.00 0.00 41 1009.7
20260501214821 64 217 1.0 6.0 0.00 0.00 0.00 43 1009.6
20260501214317 63 142 1.0 6.0 0.00 0.00 0.00 42 1009.6
20260501213814 63 136 3.0 5.0 0.00 0.00 0.00 43 1009.6
20260501213311 64 329 1.0 4.0 0.00 0.00 0.00 41 1009.6
20260501212810 64 322 2.0 4.0 0.00 0.00 0.00 40 1009.7
20260501212326 63 285 2.0 4.0 0.00 0.00 0.00 43 1009.6
20260501211822 62 143 2.0 5.0 0.00 0.00 0.00 43 1009.5
20260501211339 63 260 1.0 7.0 0.00 0.00 0.00 41 1009.5
20260501210815 63 309 1.0 9.0 0.00 0.00 0.00 42 1009.4
20260501210331 64 204 2.0 9.0 0.00 0.00 0.00 42 1009.4
20260501205826 64 221 2.0 6.0 0.00 0.00 0.00 42 1009.4
20260501205323 64 61 1.0 6.0 0.00 0.00 0.00 42 1009.4
20260501204839 64 329 3.0 6.0 0.00 0.00 0.00 45 1009.4
20260501204318 64 173 0.0 3.0 0.00 0.00 0.00 41 1009.4
20260501203813 64 190 1.0 3.0 0.00 0.00 0.00 43 1009.5
20260501203310 63 157 0.0 2.0 0.00 0.00 0.00 45 1009.4
20260501202826 63 157 0.0 8.0 0.00 0.00 0.00 43 1009.4
20260501202343 64 305 2.0 8.0 0.00 0.00 0.00 40 1009.5
20260501201839 63 182 3.0 8.0 0.00 0.00 0.00 43 1009.4
20260501201315 64 169 2.0 6.0 0.00 0.00 0.00 41 1009.5
20260501200811 63 355 2.0 4.0 0.00 0.00 0.00 44 1009.7
20260501200312 63 40 1.0 3.0 0.00 0.00 0.00 41 1009.8
20260501195849 64 179 0.0 5.0 0.00 0.00 0.00 43 1009.9
20260501195324 62 334 1.0 9.0 0.00 0.00 0.00 42 1009.9
20260501194821 64 313 3.0 10.0 0.00 0.00 0.00 42 1009.9
20260501194318 64 346 2.0 10.0 0.00 0.00 0.00 41 1009.9
20260501193814 64 345 1.0 3.0 0.00 0.00 0.00 43 1009.9
20260501193311 63 323 0.0 2.0 0.00 0.00 0.00 45 1009.9
20260501192848 62 200 0.0 3.0 0.00 0.00 0.00 42 1009.9
20260501192327 62 303 1.0 4.0 0.00 0.00 0.00 42 1010.0
20260501191824 63 113 1.0 9.0 0.00 0.00 0.00 44 1010.1
20260501191321 62 355 2.0 9.0 0.00 0.00 0.00 42 1010.0
20260501190817 63 355 3.0 8.0 0.00 0.00 0.00 44 1010.0
20260501190314 63 218 2.0 9.0 0.00 0.00 0.00 41 1010.1
20260501185811 62 292 1.0 7.0 0.00 0.00 0.00 43 1010.1
20260501185328 63 298 1.0 10.0 0.00 0.00 0.00 42 1010.2
20260501184828 62 307 3.0 7.0 0.00 0.00 0.00 42 1010.2
20260501184326 61 117 2.0 9.0 0.00 0.00 0.00 47 1010.3
20260501183822 61 249 4.0 9.0 0.00 0.00 0.00 42 1010.3
20260501183339 61 24 3.0 10.0 0.00 0.00 0.00 43 1010.4
20260501182815 62 293 2.0 10.0 0.00 0.00 0.00 43 1010.5
20260501182311 62 5 1.0 8.0 0.00 0.00 0.00 43 1010.5
20260501181828 61 347 2.0 6.0 0.00 0.00 0.00 43 1010.5
20260501181325 61 169 1.0 9.0 0.00 0.00 0.00 43 1010.7
20260501180826 60 355 3.0 11.0 0.00 0.00 0.00 48 1010.6
20260501180323 60 335 4.0 11.0 0.00 0.00 0.00 44 1010.7
20260501175819 60 338 2.0 11.0 0.00 0.00 0.00 43 1010.8
20260501175315 61 304 3.0 6.0 0.00 0.00 0.00 45 1010.7
20260501174831 61 188 1.0 6.0 0.00 0.00 0.00 46 1010.8
20260501174327 60 27 1.0 5.0 0.00 0.00 0.00 43 1010.9
20260501173823 60 309 0.0 5.0 0.00 0.00 0.00 46 1010.8
20260501173324 60 137 1.0 9.0 0.00 0.00 0.00 49 1010.8
20260501172821 59 217 2.0 9.0 0.00 0.00 0.00 47 1010.9
20260501172318 59 24 4.0 8.0 0.00 0.00 0.00 44 1010.8
20260501171815 60 338 2.0 9.0 0.00 0.00 0.00 44 1010.8
20260501171311 59 223 2.0 9.0 0.00 0.00 0.00 46 1011.1
20260501170828 58 332 3.0 5.0 0.00 0.00 0.00 46 1011.1
20260501170325 59 130 2.0 8.0 0.00 0.00 0.00 44 1011.1
20260501165825 59 319 4.0 7.0 0.00 0.00 0.00 44 1011.2
20260501165322 58 360 2.0 9.0 0.00 0.00 0.00 49 1011.2
20260501164819 59 360 5.0 9.0 0.00 0.00 0.00 47 1011.3
20260501164336 59 241 2.0 5.0 0.00 0.00 0.00 45 1011.3
20260501163812 58 296 1.0 6.0 0.00 0.00 0.00 49 1011.4